Regional Weather Roundup
Issued by NWS

Home | Current Version | Previous Version | Text Only | Print | Product List | Glossary On
Versions: 1 2 3 4 5 6 7 8 9 10 11 12 13 14 15 16 17 18 19 20 21 22 23 24 25 26 27
000
ASUS42 KTBW 222017
RWRFL
FLORIDA REGIONAL WEATHER ROUNDUP
NATIONAL WEATHER SERVICE TAMPA BAY RUSKIN FL
400 PM EDT THU JUN 22 2017

NOTE: "FAIR" INDICATES FEW OR NO CLOUDS BELOW 12,000 FEET WITH NO
SIGNIFICANT WEATHER AND/OR OBSTRUCTIONS TO VISIBILITY.

FLZ001>010-012>015-112-114-115-222100-
PANHANDLE FLORIDA

CITY           SKY/WX    TMP DP  RH WIND       PRES   REMARKS
PENSACOLA      CLOUDY    85  78  80 S20G31    29.95F HX  96
PENSACOLA NAS  CLOUDY    83  78  85 S18       29.95S
MILTON NAS     CLOUDY    83  77  82 S28G37    29.95F
CRESTVIEW      CLOUDY    85  75  72 S15G30    29.99S
DUKE FIELD     PTSUNNY   85  76  74 S22G29    29.98F
VALPARAISO     CLOUDY    85  77  77 S17G24    29.98F FOG     HX  96
MARY ESTHER    PTSUNNY   85  75  70 SE20G28   29.96F
PANAMA CITY    CLOUDY    86  78  77 SE18      30.01S HX  98
TYNDALL AFB    SUNNY     86  79  79 S21G26    30.01F HX  99
APALACHICOLA   MOSUNNY   87  83  87 S14       30.03S HX 108

STATION/POSITION SKY/WX   TEMP    WIND        PRES    WAVE   SWELL
                          AIR SEA DIR/SP/G            HT/PER HT/PER
                          (F)     (DEG/KT/KT) (MB)    (FT/S) (FT/S)
30.1N   87.6W              81 80  160/ 19/ 23 1013.2S   8/ 9   3/ 9
29.2N   88.2W              82 81  170/ 19/ 25 1013.4F   9/ 9   5/ 9
28.8N   86.0W              82 81  160/ 14/ 17 1015.5F   7/ 9   5/ 9
PANAMA CITY BEAC           82 83  150/ 19/ 21 1016.5F
TOWER C                    81     170/ 13/ 13 1017.3F
28.5N   84.5W              82 82  160/ 12/ 16 1016.5F   6/ 8   5/ 8

$$
FLZ011-016>038-118-127-128-134-139-239-222100-
NORTH FLORIDA

CITY           SKY/WX    TMP DP  RH WIND       PRES   REMARKS
MARIANNA       MOSUNNY   91  74  57 S17       29.99S HX 100
TALLAHASSEE    PTSUNNY   88  76  67 S10       30.03S HX  99
PERRY          MOSUNNY   91  74  58 S9        30.05S HX 100
CROSS CITY     SUNNY     91  72  52 SW7       30.04S HX  98
LAKE CITY      FAIR      90  73  58 S7        30.04F HX  98
GAINESVILLE    MOSUNNY   91  73  55 S7        30.03F HX  99
WILLISTON      SUNNY     95  75  52 NE6       30.03S HX 107
PALATKA        FAIR      93 N/A N/A CALM      30.03F
MAYPORT NAS    PTSUNNY   87  76  69 SE16      30.05F HX  97
JACKSONVILLE   PTSUNNY   88  76  67 SE16      30.02F HX  99
JAX NAS        PTSUNNY   92  75  57 SE10      30.04F HX 103
FERNANDINA BEA FAIR      88  77  70 SE17      30.04F HX 100
ST AUGUSTINE   MOSUNNY   88  78  72 SE16      30.06F HX 101

STATION/POSITION SKY/WX   TEMP    WIND        PRES    WAVE   SWELL
                          AIR SEA DIR/SP/G            HT/PER HT/PER
                          (F)     (DEG/KT/KT) (MB)    (FT/S) (FT/S)
SHELL POINT      NOT AVBL
KEATON BEACH               83     180/ 11/ 13 1017.3F
CEDAR KEY                  86     250/  5/  7 1017.5F
FERNANDINA                 87 84  140/ 11/ 15 1018.2F
30.7N   81.3W                 82                N/A     3/ 7
MAYPORT                    84 83  150/ 10/ 14 1017.9F
31.4N   80.9W              82 82  170/ 12/ 14 1017.8F   3/ 7   2/ 7
ST AUGUSTINE               79 81  140/ 12/ 14 1018.5F

$$
FLZ040-043>046-052-053-057-058-063-144-222100-
INTERIOR CENTRAL FLORIDA

CITY           SKY/WX    TMP DP  RH WIND       PRES   REMARKS
OCALA          MOSUNNY   93  73  52 VRB3      30.03F HX 102
THE VILLAGES     N/A     93  77  59 MISG      29.93F HX 107
LEESBURG       SUNNY     93  75  55 S6        30.04F HX 104
SANFORD        MOSUNNY   93  73  52 SE12      30.03F HX 102
ORLANDO EXEC   MOSUNNY   91  74  57 SE7       30.03F HX 100
ORLANDO INTL   MOSUNNY   89  76  65 E10       30.03F HX 100
KISSIMMEE      SUNNY     93  75  55 S6        30.04F HX 104
WINTER HAVEN   MOSUNNY   92  70  48 SE6       30.04F HX  97
LAKELAND       PTSUNNY   91  73  55 SE7       30.03F HX 100
BARTOW         MOSUNNY   93  72  49 E10       30.03F HX 100
SEBRING        FAIR      94  73  51 S9        30.03F HX 103
OKEECHOBEE     MOSUNNY   88  72  58 SE9       30.04F

$$
FLZ041-047-054-059-064-141-147-222100-
EAST CENTRAL FLORIDA

CITY           SKY/WX    TMP DP  RH WIND       PRES   REMARKS
ORMOND BEACH   SUNNY     88  75  66 SE12G21   30.05F HX  97
DAYTONA BEACH  MOSUNNY   89  75  63 E10G18    30.05F HX  99
DELAND         PTSUNNY   91  75  59 SE9       30.03S HX 102
NEW SMYRNA BEA MOSUNNY   90  73  58 SE20      30.06F HX  98
JFK SPACE CTR    N/A     90  77  66 SE14      30.05F HX 102
TITUSVILLE     SUNNY     91  73  55 SE14      30.06F HX 100
CAPE CANAVERAL SUNNY     90  77  67 SE17      30.05F HX 103
PATRICK AFB    SUNNY     85  77  76 SE12      30.06F HX  96
MELBOURNE      SUNNY     88  73  61 SE17      30.06F HX  95
VERO BEACH     SUNNY     88  74  63 SE14G24   30.06F HX  96
FT PIERCE      SUNNY     89  74  60 SE16      30.06S HX  98

STATION/POSITION SKY/WX   TEMP    WIND        PRES    WAVE   SWELL
                          AIR SEA DIR/SP/G            HT/PER HT/PER
                          (F)     (DEG/KT/KT) (MB)    (FT/S) (FT/S)
28.5N   80.2W              82 81  140/  8/ 10 1019.7F   3/ 8   2/ 8
28.9N   78.5W              82 83  130/ 10/ 14 1019.0F   6/ 8   5/ 8
TRIDENT PIER               84 81  120/  8/ 11 1019.9F
28.4N   80.5W                 80                N/A     2/ 8
27.5N   80.2W                 80                N/A     3/ 4

$$
FLZ050-056-061-142-242-148-248-149-249-151-251-155-255-
160-260-222100-
WEST CENTRAL FLORIDA

CITY           SKY/WX    TMP DP  RH WIND       PRES   REMARKS
CRYSTAL RIVER  FAIR      90  77  66 W7        30.02F HX 102
INVERNESS      FAIR      93  73  52 CALM      30.03S HX 102
BROOKSVILLE    MOSUNNY   94  72  48 VRB5      30.03F HX 102
CLEARWATER AIR FAIR      88  77  70 W5        30.02S HX 100
ST PETE CLEARW MOSUNNY   94  72  48 S7        30.02F HX 102
TAMPA INTL     MOSUNNY   92  75  57 VRB6      30.02F HX 103
TAMPA EXEC     MOSUNNY   97  72  44 CALM      30.02F HX 105
PLANT CITY     MOSUNNY   95  75  52 S10       30.04F HX 107
MACDILL AFB    MOSUNNY   94  78  61 SW6       30.02F HX 110
PETER O KNIGHT SUNNY     95  77  55 S6        30.02F HX 109
ST PETERSBURG  SUNNY     90  75  61 W10       30.01S HX 100
SARASOTA       MOSUNNY   88  76  67 SW13      30.01S HX  99
VENICE         FAIR      90  79  70 SW13      30.02F HX 105

STATION/POSITION SKY/WX   TEMP    WIND        PRES    WAVE   SWELL
                          AIR SEA DIR/SP/G            HT/PER HT/PER
                          (F)     (DEG/KT/KT) (MB)    (FT/S) (FT/S)
27.3N   84.2W                 82                N/A     5/ 8
CLEARWATER BEACH           85 85  200/  8/ 11 1017.1F
MIDDLE TAMPA BAY           85     280/  9/ 11 1017.0F
VENICE                     85 87  220/ 12/ 13 1016.6F

$$
FLZ066-069-070-075>078-162-262-165-265-222100-
SOUTHWEST FLORIDA AND KEYS

CITY           SKY/WX    TMP DP  RH WIND       PRES   REMARKS
PUNTA GORDA    MOSUNNY   93  72  50 SE9       30.02F HX 101
FT MYERS       MOSUNNY   93  74  53 SE8       30.00F HX 103
SOUTHWEST INTL MOSUNNY   92  72  51 SE10      30.01F HX  99
NAPLES         PTSUNNY   94  72  48 SE15      30.00F HX 102
MARCO ISLAND   MOSUNNY   93  72  49 E12G24    30.01F HX 100
IMMOKALEE      FAIR      91  75  59 SE12      30.03S HX 102
MARATHON       SUNNY     87  76  69 SE12G21   30.01F HX  97
KEY WEST NAS   PTSUNNY   88  78  72 E18       30.00F HX 101
KEY WEST INTL  MOSUNNY   88  77  69 E17       30.01F HX 100

STATION/POSITION SKY/WX   TEMP    WIND        PRES    WAVE   SWELL
                          AIR SEA DIR/SP/G            HT/PER HT/PER
                          (F)     (DEG/KT/KT) (MB)    (FT/S) (FT/S)
NAPLES                        88  140/ 10/ 12 1016.1F
DRY TORTUGAS               84     130/ 17/ 18 1015.9F
SAND KEY                   83     110/ 19/ 20 1016.5F
LONG KEY                   84 87  130/ 13/ 15 1016.5
MOLASSES REEF              83 83  100/ 12/ 13 1017.2F

$$
FLZ067-068-071>074-168-172>174-222100-
SOUTHEAST FLORIDA

CITY           SKY/WX    TMP DP  RH WIND       PRES   REMARKS
W PALM BEACH   MOSUNNY   88  72  58 SE17      30.06F
BOCA RATON     MOSUNNY   88  73  62 SE13G20   30.06  HX  96
FT LAUDERDALE  MOSUNNY   87  74  64 SE14G22   30.04F HX  95
POMPANO BEACH  MOSUNNY   88  74  63 E15       30.05F HX  96
PEMBROKE PINES MOSUNNY   88  72  58 E12       30.06F
OPA LOCKA      MOSUNNY   88  74  63 E14       30.05F HX  96
MIAMI          MOSUNNY   89  70  53 SE15G22   30.04F
WEST KENDALL   SUNNY     89  71  55 E13       30.04F HX  95
HOMESTEAD      SUNNY     87  77  72 E13       30.04F HX 100

STATION/POSITION SKY/WX   TEMP    WIND        PRES    WAVE   SWELL
                          AIR SEA DIR/SP/G            HT/PER HT/PER
                          (F)     (DEG/KT/KT) (MB)    (FT/S) (FT/S)
PORT EVERGLADES            86      90/  5/ 10 1017.8F
VIRGINIA KEY               84 86   80/ 10/ 12 1017.0F
LAKE WORTH                 82 84  110/ 11/ 13 1018.9F
FOWEY ROCKS                83 84  100/  9/ 10 1018.0F
SETTLEMENT POINT           84     160/ 11/ 14 1018.0F

$$





USA.gov is the U.S. government's official web portal to all federal, state and local government web resources and services.